[[{"header":{"parameterUnit":"m.s-1","parameterCategory":1,"la1":30.2991,"la2":30.254,"lo1":-89.0895,"lo2":-89.0444,"dy":0.0017,"dx":0.0017,"nx":28,"ny":28,"refTime":"2024-02-10T09:00:00:Z","depth":0,"parameterNumber":2,"parameterNumberName":"U-component_of_WINDS"},"data":[0,0,0,0,0,0,0,0,0,0,0,0,0,0,0,0,0,0,0,0,0,0,0,0,0,0,0,0,0,0,0,0,0,0,0,0,0,0,0,0,0,0,0,0,0,0,0,0,0,0,0,0,0,0,0,0,0,0,-0.4458,-0.4458,0,-0.4451,-0.4451,-0.4451,-0.4445,-0.4445,-0.4445,-0.4445,-0.4439,-0.4439,-0.4439,0,0,0,0,0,0,0,0,0,0,0,0,0,-0.4467,-0.4467,-0.4458,-0.4458,-0.4458,-0.4451,-0.4451,-0.4451,-0.4445,-0.4445,-0.4445,-0.4445,-0.4439,-0.4439,-0.4439,0,0,0,0,0,0,0,0,0,0,0,0,0,-0.4462,-0.4467,-0.4458,-0.4454,-0.4454,-0.4451,-0.4451,-0.4451,-0.4445,-0.4445,-0.4445,-0.4445,-0.4439,-0.4439,-0.4439,-0.444,0,0,-0.4439,-0.4439,0,0,0,0,0,0,0,0,-0.4462,-0.4462,-0.4455,-0.4455,-0.4454,-0.4449,-0.4452,-0.4448,-0.4445,-0.4449,-0.4445,-0.4445,-0.4443,-0.4442,-0.4441,-0.444,-0.444,-0.4439,-0.4439,-0.4439,-0.4438,0,0,0,0,0,0,0,-0.4463,-0.4462,-0.4456,-0.4455,-0.4454,-0.4453,-0.4452,-0.4451,-0.4446,-0.4448,-0.4448,-0.4447,-0.4442,-0.4441,-0.4441,-0.444,-0.4439,-0.4439,-0.4438,-0.4438,-0.4439,-0.4439,0,0,0,0,0,0,-0.4463,-0.4462,-0.4456,-0.4455,-0.4458,-0.4453,-0.4452,-0.4451,-0.4446,-0.4446,-0.4447,-0.4447,-0.4442,-0.4441,-0.4441,-0.4442,-0.4439,-0.4438,-0.4438,-0.4439,-0.4439,-0.4439,0,0,0,0,0,0,-0.4464,-0.4463,-0.4456,-0.4459,-0.4458,-0.4453,-0.4452,-0.4451,-0.445,-0.4446,-0.4445,-0.4447,-0.4442,-0.4441,-0.444,-0.4441,-0.4438,-0.4438,-0.4439,-0.4439,-0.4439,-0.4443,0,0,0,0,0,0,-0.4464,-0.4463,-0.4463,-0.4459,-0.4458,-0.4455,-0.4452,-0.4451,-0.4449,-0.4449,-0.4445,-0.4444,-0.4442,-0.4441,-0.444,-0.4441,-0.4438,-0.4438,-0.4439,-0.4439,-0.4443,-0.4444,-0.4444,0,0,0,0,0,-0.4464,-0.4465,-0.4463,-0.4463,-0.4458,-0.4455,-0.4455,-0.4451,-0.4449,-0.445,-0.4447,-0.4445,-0.4441,-0.4441,-0.444,-0.4441,-0.4438,-0.4439,-0.4439,-0.4443,-0.4444,-0.4444,0,0,0,0,0,0,-0.447,-0.4465,-0.4462,-0.4462,-0.4459,-0.4454,-0.4455,-0.4452,-0.445,-0.445,-0.4446,-0.4445,-0.4445,-0.4443,-0.4442,-0.4442,-0.4439,-0.444,-0.4443,-0.4443,-0.4444,-0.4444,-0.4438,0,0,0,0,0,-0.4472,-0.447,-0.4465,-0.4465,-0.4464,-0.446,-0.4458,-0.4456,-0.4453,-0.4452,-0.4449,-0.4447,-0.4445,-0.4444,-0.4443,-0.4443,-0.4442,-0.4443,-0.4444,-0.4444,-0.4444,-0.4444,-0.4444,-0.4439,-0.4439,-0.4439,0,0,-0.4474,-0.4471,-0.447,-0.4466,-0.4464,-0.4462,-0.4459,-0.4457,-0.4456,-0.4452,-0.4451,-0.4449,-0.4446,-0.4445,-0.4445,-0.4444,-0.4445,-0.4444,-0.4445,-0.4445,-0.4444,-0.4445,-0.4445,-0.444,-0.444,-0.444,0,0,-0.4478,-0.4476,-0.4475,-0.4473,-0.4469,-0.4466,-0.4466,-0.4462,-0.446,-0.4459,-0.4455,-0.4454,-0.4451,-0.4449,-0.4448,-0.4451,-0.4448,-0.445,-0.4453,-0.4452,-0.4453,-0.4453,-0.4454,-0.4454,-0.445,-0.445,-0.445,0,-0.4482,-0.448,-0.4475,-0.4474,-0.4472,-0.4468,-0.4467,-0.4465,-0.4461,-0.446,-0.4459,-0.4455,-0.4453,-0.4452,-0.4452,-0.4452,-0.4451,-0.4451,-0.4453,-0.4453,-0.4454,-0.4454,-0.4454,-0.4451,-0.4451,-0.4451,-0.4451,0,-0.4484,-0.4483,-0.4483,-0.4478,-0.4477,-0.4476,-0.4472,-0.447,-0.4468,-0.4465,-0.4464,-0.4461,-0.4458,-0.4458,-0.4456,-0.4456,-0.4456,-0.4454,-0.4451,-0.4454,-0.4455,-0.4455,-0.4451,-0.4451,-0.4451,-0.4451,0,0,-0.4492,-0.4485,-0.4485,-0.4483,-0.4478,-0.4477,-0.4476,-0.4473,-0.4472,-0.4469,-0.4468,-0.4466,-0.4464,-0.4463,-0.446,-0.446,-0.4462,-0.4458,-0.4458,-0.4458,-0.4462,-0.4463,-0.4463,-0.446,-0.446,-0.446,-0.4462,0,-0.4495,-0.4492,-0.4488,-0.4487,-0.4485,-0.4481,-0.448,-0.4477,-0.4474,-0.4473,-0.447,-0.4468,-0.4466,-0.4465,-0.4464,-0.4462,-0.4462,-0.4461,-0.4459,-0.4459,-0.446,-0.4464,-0.4465,-0.4467,-0.4462,-0.4462,-0.4462,0,-0.4498,-0.4495,-0.4494,-0.4489,-0.4488,-0.4487,-0.4484,-0.4482,-0.4479,-0.4477,-0.4475,-0.4472,-0.4471,-0.4469,-0.4467,-0.4466,-0.4465,-0.4463,-0.4463,-0.4463,-0.4461,-0.4463,-0.4467,-0.4468,-0.4463,-0.4463,-0.4463,0,-0.4504,-0.4499,-0.4498,-0.4496,-0.449,-0.449,-0.4487,-0.4484,-0.4482,-0.4479,-0.4478,-0.4476,-0.4474,-0.4472,-0.4469,-0.4468,-0.4467,-0.4465,-0.4466,-0.4466,-0.4466,-0.4466,-0.447,-0.4465,-0.4465,-0.4465,-0.4465,0,-0.4507,-0.4506,-0.45,-0.4499,-0.4497,-0.4493,-0.4492,-0.4489,-0.4486,-0.4485,-0.4481,-0.448,-0.4475,-0.4473,-0.4471,-0.4469,-0.4469,-0.4467,-0.4467,-0.4467,-0.4468,-0.4467,-0.4466,-0.4465,-0.4465,-0.4465,-0.4465,0,-0.4513,-0.4508,-0.4506,-0.4501,-0.4499,-0.4499,-0.4494,-0.4493,-0.449,-0.4488,-0.4487,-0.4483,-0.4481,-0.4477,-0.4474,-0.4472,-0.4471,-0.447,-0.4472,-0.4471,-0.4472,-0.4472,-0.4475,-0.4475,-0.4471,-0.4471,-0.4471,0,-0.4515,-0.4514,-0.4508,-0.4507,-0.4504,-0.4502,-0.45,-0.4496,-0.4494,-0.449,-0.4489,-0.4487,-0.4484,-0.4481,-0.4477,-0.4475,-0.4473,-0.4475,-0.4473,-0.4474,-0.4473,-0.4473,-0.4473,-0.4475,-0.4475,-0.4475,-0.4475,0,-0.4519,-0.4517,-0.4514,-0.4511,-0.4508,-0.4506,-0.4503,-0.4502,-0.4497,-0.4495,-0.4492,-0.449,-0.4487,-0.4484,-0.4481,-0.4479,-0.4476,-0.4476,-0.4476,-0.4477,-0.4478,-0.4477,-0.4473,-0.4476,-0.4476,-0.4476,-0.4476,-0.4476,-0.4523,-0.4522,-0.4517,-0.4514,-0.4512,-0.4509,-0.4507,-0.4504,-0.4501,-0.4498,-0.4495,-0.4493,-0.4489,-0.4485,-0.4483,-0.4481,-0.448,-0.448,-0.448,-0.448,-0.448,-0.4478,-0.448,-0.448,-0.448,-0.448,-0.448,0,-0.4527,-0.4524,-0.4521,-0.4516,-0.4514,-0.4512,-0.4508,-0.4506,-0.4504,-0.4501,-0.4498,-0.4495,-0.4492,-0.4489,-0.4486,-0.4485,-0.4484,-0.4484,-0.4484,-0.4484,-0.4481,-0.4481,-0.4485,-0.4485,-0.4485,-0.4485,-0.4485,-0.4485,-0.4529,-0.4526,-0.4523,-0.452,-0.4517,-0.4514,-0.4512,-0.4509,-0.4506,-0.4503,-0.45,-0.4498,-0.4495,-0.4491,-0.4489,-0.4488,-0.4487,-0.4488,-0.4486,-0.4484,-0.4484,-0.4483,-0.4483,-0.4488,-0.4488,-0.4489,-0.4489,-0.4489]},{"header":{"parameterUnit":"m.s-1","parameterCategory":1,"la1":30.2991,"la2":30.254,"lo1":-89.0895,"lo2":-89.0444,"dy":0.0017,"dx":0.0017,"nx":28,"ny":28,"refTime":"2024-02-10T09:00:00:Z","depth":0,"parameterNumber":3,"parameterNumberName":"V-component_of_WINDS"},"data":[0,0,0,0,0,0,0,0,0,0,0,0,0,0,0,0,0,0,0,0,0,0,0,0,0,0,0,0,0,0,0,0,0,0,0,0,0,0,0,0,0,0,0,0,0,0,0,0,0,0,0,0,0,0,0,0,0,0,1.9644,1.9645,0,1.9739,1.974,1.9741,1.9783,1.9783,1.9782,1.9782,1.9883,1.9885,1.9888,0,0,0,0,0,0,0,0,0,0,0,0,0,1.95,1.9503,1.9643,1.9645,1.9646,1.9739,1.974,1.9742,1.9783,1.9783,1.9782,1.9782,1.9882,1.9885,1.9888,0,0,0,0,0,0,0,0,0,0,0,0,0,1.9576,1.9503,1.9643,1.9678,1.9682,1.9739,1.974,1.9742,1.9783,1.9783,1.9782,1.9782,1.9881,1.9885,1.9889,1.992,0,0,1.9902,1.9904,0,0,0,0,0,0,0,0,1.9571,1.9581,1.9671,1.9675,1.968,1.9749,1.9727,1.9802,1.9783,1.9744,1.9782,1.9782,1.9838,1.9846,1.9865,1.9924,1.9929,1.9902,1.9905,1.9906,1.9908,0,0,0,0,0,0,0,1.9566,1.9577,1.9681,1.9673,1.9678,1.9689,1.97,1.9741,1.9792,1.9748,1.9751,1.9762,1.9841,1.986,1.9867,1.993,1.9902,1.9906,1.9908,1.991,2.0022,2.0023,0,0,0,0,0,0,1.9555,1.9572,1.9678,1.9684,1.9624,1.9692,1.9704,1.9727,1.9791,1.9801,1.9762,1.9763,1.9853,1.9862,1.9871,1.9913,1.9906,1.991,1.9913,2.0022,2.0022,2.0023,0,0,0,0,0,0,1.9552,1.9564,1.9675,1.9629,1.9644,1.9695,1.972,1.9729,1.9749,1.9802,1.9811,1.9772,1.9853,1.9865,1.9908,1.9917,1.9912,1.9916,2.0021,2.0022,2.0023,1.9995,0,0,0,0,0,0,1.9547,1.9562,1.9574,1.9629,1.9646,1.9708,1.9721,1.9731,1.9756,1.9758,1.9814,1.9823,1.9854,1.9901,1.9912,1.9922,1.9919,2.0021,2.0022,2.0022,1.9996,1.9995,1.9995,0,0,0,0,0,1.9542,1.9562,1.9574,1.9587,1.9661,1.9709,1.9719,1.9753,1.9756,1.9769,1.9803,1.9822,1.9914,1.9905,1.9917,1.993,2.002,2.0021,2.0022,1.9996,1.9995,1.9995,0,0,0,0,0,0,1.9507,1.957,1.9584,1.9622,1.966,1.9716,1.9732,1.9751,1.9789,1.979,1.9832,1.9844,1.9883,1.9911,1.99,1.9964,1.9969,1.9972,1.9945,1.9944,1.9944,1.9937,1.9923,0,0,0,0,0,1.9504,1.9536,1.959,1.9619,1.9637,1.9681,1.9703,1.9726,1.9767,1.9783,1.9821,1.986,1.9899,1.9923,1.9961,2.0,2.0014,2.0015,2.0014,2.0013,2.0016,2.0041,2.0042,2.0026,2.0026,2.0026,0,0,1.9497,1.9536,1.9554,1.9613,1.9644,1.9678,1.9694,1.9729,1.9755,1.9789,1.9831,1.986,1.9908,1.9949,1.9969,1.9973,2.0024,2.0014,2.0013,2.0017,2.0042,2.0043,2.0045,2.0027,2.0027,2.0027,0,0,1.9503,1.9535,1.9563,1.9595,1.9643,1.9672,1.9679,1.9732,1.9753,1.9796,1.9823,1.9855,1.9919,1.9952,1.9978,1.9998,2.0017,2.0009,2.0006,2.003,2.0031,2.0032,2.0041,2.0043,2.0011,2.0011,2.0011,0,1.9489,1.954,1.9576,1.9609,1.9635,1.9667,1.9697,1.9727,1.9785,1.9802,1.9806,1.9888,1.9922,1.9973,1.9978,1.9996,2.0007,2.0003,2.0028,2.0029,2.0031,2.004,2.0043,2.001,2.001,2.001,2.001,0,1.9522,1.9557,1.9574,1.9629,1.9657,1.9689,1.973,1.9754,1.9776,1.9805,1.985,1.9892,1.994,1.9954,1.9975,2.0008,2.0009,2.0019,2.0025,2.0031,2.004,2.0044,2.0008,2.0009,2.0009,2.0009,0,0,1.9508,1.9583,1.9589,1.9615,1.967,1.9699,1.9733,1.9779,1.98,1.9839,1.987,1.9924,1.9934,1.9963,1.9988,2.0009,2.0024,2.0017,2.0019,2.0018,2.0066,2.0058,2.0061,2.0037,2.0038,2.0038,2.0062,0,1.9522,1.9583,1.9617,1.9664,1.9698,1.973,1.976,1.9798,1.9827,1.9861,1.9894,1.9932,1.9942,1.996,1.9982,2.0018,2.0034,2.0016,2.0068,2.0069,2.0056,2.0066,2.0058,2.0078,2.0066,2.0066,2.0067,0,1.9547,1.9585,1.9636,1.969,1.9705,1.9731,1.9778,1.9809,1.9854,1.9874,1.9906,1.9931,1.997,1.9973,2.0028,2.0014,2.0038,2.0058,2.006,2.0067,2.0069,2.0074,2.0085,2.0089,2.0072,2.0072,2.0072,0,1.9533,1.9598,1.9637,1.9658,1.9721,1.9739,1.9767,1.9811,1.9837,1.9878,1.9896,1.9941,1.9965,2.0,2.0038,2.0036,2.009,2.0095,2.0109,2.0108,2.0119,2.0118,2.0135,2.0132,2.0132,2.0132,2.0132,0,1.9546,1.9576,1.9632,1.9656,1.9692,1.9731,1.9766,1.9795,1.9835,1.9867,1.9897,1.9927,1.9974,2.001,2.0039,2.0081,2.0092,2.011,2.0118,2.0108,2.0106,2.0125,2.0125,2.0133,2.0132,2.0132,2.0132,0,1.9537,1.9575,1.962,1.9677,1.9692,1.9715,1.9764,1.979,1.9821,1.9861,1.9873,1.9922,1.9966,2.0006,2.0065,2.0085,2.0128,2.0137,2.0113,2.0117,2.0129,2.0128,2.016,2.0167,2.0157,2.0157,2.0157,0,1.9543,1.9567,1.9626,1.9649,1.9676,1.9713,1.974,1.978,1.9807,1.9861,1.9881,1.9927,1.9966,2.0035,2.0077,2.0122,2.0134,2.0142,2.0141,2.0131,2.0136,2.0134,2.0138,2.0141,2.0141,2.0141,2.0141,0,1.955,1.9568,1.9606,1.9651,1.9682,1.9719,1.9758,1.9775,1.9823,1.9853,1.9898,1.9928,1.9988,2.0034,2.0085,2.0114,2.0136,2.0141,2.0147,2.0138,2.0123,2.0133,2.0113,2.014,2.014,2.014,2.014,2.014,1.955,1.9573,1.9619,1.966,1.9694,1.9729,1.9757,1.9791,1.9829,1.9881,1.9903,1.9949,1.9996,2.0065,2.0095,2.0133,2.0138,2.0146,2.0148,2.015,2.0149,2.0116,2.0142,2.0142,2.0142,2.0142,2.0142,0,1.956,1.9591,1.9629,1.9682,1.9715,1.9732,1.9776,1.9803,1.9843,1.9884,1.9922,1.9975,2.002,2.0066,2.0114,2.0136,2.0147,2.0147,2.0147,2.0153,2.0141,2.0132,2.0137,2.0137,2.0137,2.0137,2.0137,2.0137,1.9569,1.961,1.9634,1.9693,1.9725,1.977,1.9794,1.9828,1.9861,1.9918,1.9956,1.9985,2.0029,2.0081,2.0124,2.0136,2.0154,2.0151,2.0166,2.0154,2.0154,2.0154,2.0146,2.0154,2.0154,2.0176,2.0176,2.0176]}]]